Back to catalog

YAOGAN-31 L

AliveMilitaryLEO
NORAD 47856·PAYLOAD·🇨🇳 China

Launched Mar 13, 2021 from Jiuquan Satellite Launch Center

Loading…

Next Passes (next 24 hours)

TLE

FreshSource: Space-Track

Epoch: Sep 14, 2026, 22:38 UTC

1 47856U 21020C   26257.94371171 -.00000020  00000-0  10723-3 0  9999
2 47856  63.4065  28.1164 0182386   0.8971 359.2348 13.45452590270484

Track YAOGAN-31 L in real time with AllMySat

Download on the App Store